SCP
0 -0 0 0 0 0 0 0 0 0 0 0 0 0 0 0 0 0 0 0 0 0 0 0 0 0 0 0 0 0 0 0 0 0 0 0 0 0 0 0 0 0 0 0 0 0 0 0 0 0 0 0 0 0
0 0 0 0 0 0 0 0 0 0 0 0 0 0 0 0 0 0 0 0 0 0 0 0 0 0 0 0 0 0 0 0 0 0 0 0 0 0 0 0 0 0 0 0 1 0 0 0 0 0 0 0 0 0
0 0 0 0 0 0 0 0 0 0 0 0 0 0 0 0 0 0 0 0 0 0 0 0 0 0 0 0 0 0 0 0 0 0 0 0 0 0 0 0 0 0 0 0 0 0 0 0 0 0 0 0 0 0
0 -0 -0 -0 -0 0 0 0 0 0 0 0 0 0 0 0 0 0 -0 0 0 0 0 0 0 0 0 0 0 0 0 0 0 0 0 0 0 0 -0 0 0 0 0 0 0 0 0 0 0 0 0 0 0 0
0 0 -0 -0 -0 0 0 0 0 0 0 0 0 0 0 0 -0 0 0 0 0 0 0 0 0 -0 0 0 0 0 0 0 0 0 0 0 0 0 0 -0 -0 0 0 0 0 0 0 0 0 0 0 0 0 0
0 0 0 0 -0 -0 -0 0 0 0 0 0 0 0 -0 -0 -0 0 0 0 0 0 0 0 0 0 0 0 0 -0 -0 0 0 0 0 0 0 0 0 0 -0 -0 -0 0 0 0 0 0 0 0 0 0 0 0
0 0 0 0 0 0 -0 -0 -0 -0 0 -0 -0 -0 -0 0 0 0 0 0 0 0 0 0 0 0 0 -0 -0 -0 -0 0 -0 0 0 0 0 0 0 0 -0 -0 0 -0 0 -0 0 0 0 0 0 0 0 0
0 0 0 -0 -0 0 0 -0 0 -0 0 -0 -0 0 0 0 0 0 0 0 0 0 0 0 0 -0 -0 -0 -0 0 0 0 0 0 0 0 0 0 0 -0 0 0 -0 0 0 0 0 0 0 0 0 0 0 0
0 0 0 0 -0 -0 0 -0 -0 -0 0 -0 -0 -0 0 0 0 0 0 0 0 0 0 0 -0 0 0 0 -0 0 0 0 0 0 0 0 0 0 0 0 0 0 0 0 0 0 0 0 0 0 0 0 0 0
0 0 0 0 0 0 -0 -0 -0 -0 -0 -0 0 0 0 0 -0 0 0 0 0 0 0 0 0 -0 -0 0 -0 0 0 0 0 0 0 0 0 -0 -0 -0 -0 0 0 0 0 0 0 0 0 0 0 0 0 0
0 0 0 0 0 0 0 -0 -0 -0 -0 0 0 0 0 0 0 0 0 0 0 0 0 0 0 -0 -0 -0 -0 -0 -0 -0 -0 0 0 0 0 -0 -0 -0 0 0 0 0 0 0 0 0 0 0 0 0 0 0
0 0 0 0 0 0 0 0 0 0 0 0 0 0 0 0 0 -0 0 0 0 0 -0 0 -0 -0 0 0 -0 -0 -0 -0 -0 -0 -0 -0 0 -0 -0 0 0 0 0 0 0 0 0 0 0 0 0 0 0 0
0 0 0 0 -0 0 0 -0 0 0 0 0 -0 -0 -0 0 -0 0 -0 -0 0 0 0 0 0 0 -0 -0 -0 -0 -0 0 -0 0 0 0 -0 -0 0 -0 -0 -0 0 0 0 0 0 0 0 0 0 0 0 0
0 0 0 0 -0 -0 0 0 -0 0 0 0 0 -0 -0 -0 -0 -0 -0 -0 -0 -0 0 0 0 0 0 0 0 -0 0 -0 -0 0 0 0 -0 -0 -0 -0 -0 -0 -0 -0 -0 -0 0 0 0 0 0 0 0 0
0 0 0 0 -0 -0 -0 0 -0 0 0 0 0 -0 -0 -0 -0 0 0 0 0 0 -0 0 0 0 0 0 0 0 0 0 -0 -0 0 0 0 0 0 0 0 0 0 0 0 0 0 0 0 0 0 0 0 0
0 0 0 0 0 -0 0 0 0 0 0 0 -0 -0 0 0 0 0 0 0 0 0 0 -0 0 0 0 0 0 0 0 0 0 0 0 0 0 0 0 0 0 0 0 0 0 0 0 0 0 0 0 0 0 0
0 0 0 0 0 0 0 0 0 0 0 0 0 0 -0 -0 -0 0 0 0 0 0 0 0 0 -0 0 0 0 0 0 0 0 0 0 0 0 0 0 0 0 0 0 0 0 0 0 0 0 0 0 0 0 0
-0 0 0 0 0 0 0 0 0 0 0 0 0 0 0 0 0 0 0 0 0 0 0 0 0 -0 0 0 0 0 0 0 0 0 0 0 0 0 0 0 0 0 0 0 0 0 0 0 0 0 0 0 0 0
-0 0 0 0 0 0 0 0 0 0 0 0 0 0 0 0 0 0 0 0 0 0 0 0 -0 -0 -0 -0 0 0 0 -0 0 0 -0 -0 0 0 0 -0 0 -0 0 0 0 0 0 0 0 0 0 0 0 0
-0 0 0 0 0 0 0 0 0 0 0 0 0 0 0 0 0 0 0 0 0 0 0 0 0 0 0 -0 -0 0 0 0 0 0 0 0 0 0 0 0 0 0 0 0 0 0 0 0 0 0 0 0 0 0
-0 0 0 0 0 0 0 0 0 0 0 0 0 0 0 0 0 0 0 0 0 0 0 0 0 0 0 0 0 0 0 0 0 0 0 0 0 0 0 0 0 0 0 0 0 0 0 0 0 0 0 0 0 0
0 0 0 0 0 0 0 0 0 0 0 0 -0 -0 -0 0 0 0 0 0 0 0 0 0 0 0 0 0 0 0 0 0 0 0 0 0 0 0 0 0 0 0 0 0 0 0 0 0 0 0 0 0 0 0
0 0 0 0 0 0 0 0 0 0 0 0 0 0 0 0 0 0 0 0 0 0 0 0 0 0 0 0 0 0 0 0 0 0 0 0 0 0 0 0 0 0 0 0 0 0 0 0 0 0 0 0 0 0
0 0 0 0 0 0 0 0 0 0 0 0 0 0 0 0 0 0 0 0 0 0 0 0 0 0 0 0 0 0 0 0 0 0 0 0 0 0 0 0 0 0 0 0 0 0 0 0 0 0 0 0 0 0
0 0 0 0 0 0 0 0 0 0 0 0 0 0 0 0 0 0 0 0 0 0 0 0 0 0 0 0 0 0 0 0 0 0 0 0 0 0 0 0 0 0 0 0 0 0 0 0 0 0 0 0 0 0
0 0 0 0 0 0 0 0 0 0 0 0 0 0 0 0 0 0 0 0 0 0 0 0 0 0 0 0 0 0 0 0 0 0 0 0 0 0 0 0 0 0 0 0 0 0 0 0 0 0 0 0 0 0
0 0 0 0 0 0 0 0 0 0 0 0 0 0 0 0 0 0 0 0 0 0 0 0 0 0 0 0 0 0 0 0 0 0 0 0 0 0 0 0 0 0 0 0 0 0 0 0 0 0 0 0 0 0
0 0 0 0 0 0 0 0 0 0 0 0 0 0 0 0 0 0 0 0 0 0 0 -0 -0 -0 0 0 0 0 0 0 0 0 0 0 0 0 0 0 0 0 0 0 0 0 0 0 0 0 0 0 0 0
0 0 0 0 0 0 0 0 0 0 0 0 0 0 0 0 0 0 0 0 0 -0 -0 0 0 0 0 0 0 0 0 0 0 0 0 0 0 0 0 0 0 0 0 0 0 0 0 0 0 0 0 0 0 0
0 0 0 0 0 0 0 0 0 0 0 0 0 0 0 0 0 0 0 0 0 0 0 0 0 0 0 0 0 0 0 0 0 0 0 0 0 0 0 0 0 0 0 0 0 0 0 0 0 0 0 0 0 0
0 0 0 0 0 0 0 0 0 0 0 0 0 0 0 0 0 0 0 0 0 0 0 0 0 0 0 0 0 0 0 0 0 0 0 0 0 0 0 0 0 0 0 0 0 0 0 0 0 0 0 0 0 0
0 0 -0 0 0 0 0 0 0 0 0 0 0 0 0 0 0 0 0 0 0 0 0 0 0 0 0 0 0 0 0 0 0 0 0 0 0 0 0 0 0 0 0 0 0 0 0 0 0 0 0 0 0 0
0 0 0 0 0 0 0 0 0 0 0 0 0 0 0 0 0 0 0 0 0 0 0 0 0 0 0 0 0 0 0 0 0 0 0 0 0 0 0 0 0 0 0 0 0 0 0 0 0 0 0 0 0 0
Wind_Speed_500mb
22 24 22 35 42 52 59 52 53 50 46 42 38 33 35 37 33 36 25 25 26 15 31 23 18 21 23 22 13 16 9 11 15 11 8 13 18 23 30 42 42 35 17 33 37 27 40 48 39 24 32 20 14 22
25 24 25 31 39 42 48 59 63 58 57 55 48 44 39 34 36 34 28 22 21 23 20 21 25 31 32 36 35 32 25 30 13 8 10 8 12 9 24 25 37 36 34 12 19 24 19 22 41 47 44 42 28 28
35 37 42 45 49 52 51 56 63 64 59 62 62 56 48 40 37 38 30 24 21 21 32 42 41 39 42 43 32 34 42 51 43 39 14 8 13 3 10 9 26 37 34 31 19 25 22 41 42 32 18 14 22 27
44 48 46 41 42 45 55 58 63 74 61 56 64 57 56 52 47 37 37 31 23 9 11 17 15 25 27 34 42 55 66 54 52 47 28 11 17 14 15 12 17 13 19 8 15 18 28 35 21 55 23 29 27 26
47 42 42 47 38 35 39 48 64 66 75 56 53 60 51 46 42 40 35 34 31 18 9 22 41 51 48 48 49 53 57 58 51 34 20 23 31 26 21 20 23 25 20 16 9 29 24 39 26 27 27 25 27 32
47 44 51 50 25 20 26 35 57 61 69 63 47 52 55 50 43 37 30 51 48 35 7 7 18 53 55 55 44 48 70 61 59 48 28 51 71 34 14 24 47 36 56 66 34 38 42 58 54 14 20 20 32 38
43 48 50 40 22 12 14 31 41 53 63 65 51 46 45 49 49 44 9 8 35 37 2 9 10 15 4 12 29 45 45 44 52 36 25 45 41 40 29 34 64 52 64 60 59 57 43 51 42 25 24 24 26 18
37 43 52 42 27 19 15 26 38 50 47 61 52 44 39 40 43 49 20 18 25 16 9 7 10 25 18 12 10 19 32 49 30 36 31 24 30 30 16 44 69 56 32 66 45 37 37 31 31 33 36 33 29 27
30 36 43 52 33 22 26 29 36 50 46 56 49 46 30 21 14 17 35 19 15 16 8 12 12 15 9 11 17 19 19 9 18 13 17 18 13 19 33 46 45 49 45 47 38 42 46 42 44 41 40 31 37 38
24 26 31 39 46 42 24 29 34 42 46 57 43 17 8 19 13 21 12 9 13 14 17 10 27 23 33 41 9 6 12 6 6 11 14 15 26 53 60 55 57 56 53 28 32 37 37 40 39 39 37 34 33 34
15 18 18 25 33 45 56 41 45 56 63 28 10 7 22 23 11 9 11 13 17 9 18 23 39 21 35 14 10 10 7 4 7 6 11 6 11 29 60 57 51 46 47 24 26 35 32 32 32 28 31 35 35 30
7 8 10 13 17 26 34 29 23 21 8 10 17 23 18 9 7 8 8 9 11 9 17 18 23 14 9 4 6 10 6 5 9 9 6 3 5 5 3 23 35 31 31 35 29 34 33 27 22 26 27 27 29 32
5 3 4 7 10 11 16 16 11 16 19 10 6 8 8 12 13 12 14 9 9 12 11 12 7 5 5 11 8 6 7 3 10 5 5 3 8 14 8 5 5 7 10 15 19 24 25 27 28 30 34 35 36 38
14 10 11 10 9 8 12 13 14 11 3 2 8 10 12 11 12 12 13 13 14 16 22 14 12 5 5 6 5 7 3 6 6 4 4 11 21 19 12 10 6 3 8 13 20 25 27 29 30 33 38 45 47 46
21 25 24 23 20 16 13 9 7 12 7 8 10 9 15 21 14 4 9 17 32 29 23 18 15 20 8 8 7 8 5 8 8 4 4 12 14 15 11 5 9 11 10 12 14 15 16 17 18 21 21 20 24 29
19 23 28 28 27 27 26 22 19 15 6 8 13 14 22 13 11 12 11 25 25 26 23 13 7 6 11 6 10 12 8 10 2 6 15 21 11 16 19 17 11 5 6 7 7 6 7 10 10 10 10 10 13 15
18 14 21 22 31 35 32 33 16 13 12 10 11 25 31 31 21 10 18 17 6 4 6 5 9 15 5 8 10 10 15 8 15 21 22 24 17 22 28 13 6 3 1 2 4 7 9 8 6 6 2 6 12 16
17 16 21 24 28 29 31 41 16 14 15 25 14 22 21 27 23 23 21 18 16 10 7 6 8 8 7 7 7 4 13 18 20 23 27 34 28 22 11 3 4 6 11 14 10 11 9 2 2 1 1 5 9 15
18 21 15 13 15 9 9 16 18 11 28 20 27 29 28 26 30 35 29 22 24 17 7 6 9 9 11 8 6 7 4 5 13 25 25 23 14 9 9 9 12 13 18 20 18 15 13 15 13 13 15 17 14 16
27 25 29 32 25 8 9 9 14 10 9 14 22 26 24 21 23 22 16 15 16 9 9 8 8 11 5 9 9 11 13 13 13 19 20 16 13 12 13 14 15 17 19 20 20 21 20 19 19 21 22 23 23 25
17 21 15 16 22 20 11 11 14 11 10 11 17 25 21 25 28 23 16 19 10 9 9 11 9 6 12 11 13 10 10 10 13 16 19 17 20 13 12 13 14 19 23 25 29 30 25 23 22 23 25 26 23 26
14 13 10 23 17 19 16 18 13 9 9 14 20 24 21 12 16 16 12 12 10 27 16 5 5 8 8 12 12 13 13 15 16 18 20 19 16 16 13 15 13 20 25 26 32 32 32 25 18 25 28 30 23 29
13 17 16 20 17 13 10 13 10 10 8 6 11 6 5 4 2 14 7 17 13 8 9 8 6 6 7 8 10 11 14 19 19 19 22 21 23 22 24 22 21 25 29 29 26 28 29 26 27 24 26 25 22 25
19 9 6 7 13 4 5 6 10 9 5 7 6 3 6 3 2 6 9 6 13 16 14 11 6 6 8 13 17 22 22 22 23 23 21 21 26 27 26 22 20 27 27 28 28 26 23 23 22 23 22 25 24 27
9 10 6 9 10 8 8 6 4 4 5 7 3 5 4 2 4 5 7 4 15 19 25 18 16 15 19 26 29 31 29 28 33 36 32 27 30 28 30 31 33 26 26 28 26 25 24 26 27 27 27 26 28 29
8 6 6 6 3 6 4 4 8 10 6 3 4 5 1 3 4 7 2 14 22 20 24 22 19 24 30 29 33 34 33 32 34 39 37 32 30 24 26 28 30 30 27 27 30 19 19 23 29 26 27 30 32 32
4 2 3 5 9 12 7 7 5 3 2 5 5 3 3 7 9 4 12 21 12 15 20 27 28 28 31 33 30 27 30 31 30 36 44 45 41 35 28 34 38 39 38 31 21 22 22 22 22 24 27 27 30 32
10 19 13 18 6 5 7 6 4 7 5 6 4 7 4 4 6 9 15 25 27 29 33 34 28 28 24 27 37 38 32 34 39 39 38 35 31 30 32 37 36 30 33 38 39 34 26 22 21 20 20 21 26 28
9 26 19 3 6 6 5 4 7 11 13 13 9 6 6 19 37 42 32 26 33 48 56 46 30 30 31 20 19 20 23 27 31 37 35 36 36 34 22 23 25 29 30 29 30 30 22 20 21 20 20 20 20 21
12 26 13 9 7 6 0 16 24 33 31 24 27 39 45 42 39 34 30 35 43 38 30 25 18 13 14 18 21 22 22 20 24 30 34 32 36 42 33 27 29 27 25 20 26 20 17 12 13 16 18 18 19 19
32 39 34 34 24 38 39 40 41 34 29 34 35 37 40 35 13 20 23 20 19 13 13 18 13 14 18 22 22 26 28 28 32 34 35 31 26 26 23 24 22 15 7 7 9 8 8 8 7 9 11 13 15 15
30 33 29 26 26 39 35 28 33 36 41 43 40 36 35 29 16 12 32 25 23 26 25 22 17 19 24 24 17 24 26 25 29 36 37 31 25 20 16 14 15 11 7 3 5 9 9 4 4 8 10 8 9 12
32 39 47 34 10 14 34 35 36 33 30 29 12 18 22 12 12 11 20 30 33 34 26 22 19 25 12 16 22 28 25 22 25 29 27 22 13 9 11 13 14 13 8 8 6 6 8 9 6 9 12 11 10 10
Wind_Direction_500mb
314 309 286 270 263 254 248 244 235 230 228 220 217 216 218 218 214 208 225 225 215 244 260 279 270 272 266 265 266 274 303 249 165 218 237 242 246 253 257 252 260 260 236 227 227 237 243 238 253 186 214 258 257 199
324 310 296 285 276 266 254 244 231 227 220 217 218 217 215 212 215 215 229 237 227 244 258 280 272 261 263 267 279 277 264 252 214 241 234 266 260 269 268 264 255 249 246 237 235 236 254 254 238 253 217 203 212 214
329 321 308 295 281 266 256 243 232 220 218 214 214 215 216 213 214 215 218 237 229 251 272 259 260 259 254 252 250 262 253 254 269 264 251 254 254 273 297 310 281 248 244 243 245 246 283 292 283 248 184 212 222 205
333 327 320 305 290 270 251 240 225 220 209 214 213 214 217 219 219 222 221 231 228 250 274 282 272 261 261 249 244 242 251 264 275 277 267 251 253 226 263 276 307 310 335 306 244 264 298 249 246 250 211 214 228 233
342 341 337 331 295 275 250 229 214 214 210 209 209 207 205 207 209 217 220 232 239 226 298 293 294 284 270 257 251 245 240 242 245 251 247 249 247 255 264 266 265 256 257 269 278 310 323 275 192 199 223 242 248 243
355 339 337 339 332 296 226 209 200 204 205 201 199 198 203 203 203 214 231 232 223 224 269 284 290 287 274 263 253 246 247 245 240 240 242 249 246 255 263 263 260 277 254 255 264 271 286 288 298 295 269 249 251 234
358 4 2 7 18 37 172 179 188 197 205 186 185 186 194 202 209 212 228 239 204 203 248 278 271 274 276 294 244 250 252 253 259 252 230 237 240 224 239 247 260 260 280 283 252 254 255 275 256 259 273 260 257 249
5 12 15 26 39 56 113 167 178 178 182 175 180 187 198 203 209 213 208 152 160 172 224 261 260 270 280 240 250 261 249 249 232 234 230 223 228 229 242 238 254 258 264 266 267 270 283 281 277 266 258 253 249 242
13 19 27 34 48 74 84 128 159 178 183 172 182 198 192 177 175 179 171 197 208 215 235 229 261 292 205 235 273 283 233 240 208 220 218 204 211 221 229 240 247 254 252 255 253 260 267 268 270 272 272 256 243 233
16 26 36 42 48 58 100 126 132 155 156 167 159 120 120 167 127 122 145 202 210 211 222 255 257 260 281 286 278 268 242 245 236 210 188 227 242 239 240 242 234 248 258 271 284 281 260 265 274 268 253 249 244 245
14 29 41 56 65 72 77 94 140 141 138 119 121 105 129 147 147 194 212 207 197 220 216 245 236 252 267 264 284 219 301 291 264 170 188 233 252 239 238 241 242 248 260 271 284 299 295 269 256 245 254 253 259 260
339 21 49 75 90 107 109 94 65 63 92 112 119 110 131 176 184 228 220 217 225 235 232 211 242 255 277 246 259 255 258 295 352 333 273 261 258 359 343 230 243 257 253 262 276 293 290 294 271 262 262 258 251 260
304 280 133 130 100 155 169 155 98 116 106 114 115 138 176 183 220 218 203 225 228 226 240 278 289 259 249 236 250 266 278 306 302 275 274 301 96 104 131 177 246 244 262 271 273 272 266 261 260 258 256 260 255 249
235 226 201 182 184 145 171 210 237 205 151 186 166 205 217 189 229 205 236 261 283 310 291 283 285 253 226 251 258 261 291 283 275 251 230 61 34 28 32 35 23 291 303 291 281 279 281 280 277 271 264 258 255 251
254 236 223 217 207 201 202 214 247 188 206 230 217 234 221 237 256 250 254 278 272 278 284 288 265 236 235 235 233 242 235 250 239 286 49 66 48 48 30 349 289 292 295 302 300 296 294 290 285 278 272 260 247 239
265 256 245 232 233 239 246 242 248 239 226 229 238 253 264 269 241 188 248 264 274 280 221 232 255 249 221 226 210 212 240 226 261 29 2 338 325 335 339 315 291 271 319 332 337 360 332 307 293 291 267 236 227 216
260 255 255 247 231 230 227 226 247 220 214 227 240 246 269 280 280 254 245 255 237 203 225 186 220 221 240 235 220 217 242 325 21 359 349 346 331 318 319 287 220 217 273 46 0 342 355 6 34 42 7 191 194 189
247 263 253 265 263 251 223 209 210 218 234 232 247 249 243 248 264 266 258 239 199 210 203 233 311 216 227 235 238 343 52 18 360 323 313 310 290 304 300 279 275 316 320 330 296 312 305 299 212 246 119 168 192 196
240 235 243 262 283 257 256 216 196 227 221 236 245 254 262 266 265 266 258 253 224 225 227 215 245 251 253 308 49 73 0 339 326 329 318 321 306 311 316 301 295 296 287 280 281 284 269 253 245 262 250 236 235 235
255 260 251 249 247 231 256 243 199 237 245 233 233 245 242 248 263 264 241 242 235 231 224 228 246 333 345 38 33 347 348 330 333 323 330 338 301 306 300 292 288 291 287 270 261 259 256 263 266 272 269 261 261 238
269 269 240 214 208 220 266 269 217 230 246 238 240 237 244 250 252 235 226 213 218 229 240 262 81 42 7 356 359 351 351 350 332 316 315 318 330 317 293 289 285 284 277 270 257 257 257 247 265 268 257 256 261 247
234 223 203 183 215 208 243 240 250 284 260 248 263 256 258 250 249 246 164 189 244 238 264 293 33 26 42 31 17 20 358 343 325 312 306 300 298 311 325 319 297 289 289 285 280 269 256 255 256 270 270 254 248 246
240 212 228 202 208 217 262 213 235 228 238 254 257 244 246 225 179 161 216 220 209 180 151 130 107 84 64 31 10 7 355 353 349 335 325 314 309 303 303 295 295 304 296 287 278 283 264 260 266 269 262 257 249 238
196 209 239 239 215 237 196 241 236 247 249 245 238 247 319 330 249 236 255 281 118 138 147 122 66 16 348 347 342 336 335 324 317 317 317 310 306 302 299 297 292 298 297 297 286 284 261 254 268 266 263 243 243 236
188 201 221 227 224 211 221 221 237 279 239 228 275 299 295 268 235 260 282 87 108 108 81 65 31 7 349 334 324 322 319 320 320 312 303 301 297 287 294 292 290 292 299 289 283 281 270 266 267 261 260 251 245 244
242 157 223 311 263 224 234 234 199 216 247 221 267 271 335 288 278 246 70 90 124 104 43 20 351 331 317 310 309 311 313 315 310 308 303 300 297 285 286 293 293 293 295 293 277 267 271 271 268 265 265 253 246 244
274 241 249 259 300 303 291 259 279 267 235 229 238 253 240 224 228 87 81 58 47 15 351 339 325 308 303 304 304 302 297 303 299 289 284 283 276 271 280 282 284 287 282 280 265 280 280 273 269 273 268 264 261 258
4 17 339 336 290 262 292 296 245 225 234 12 265 210 231 267 38 30 5 353 350 337 332 330 315 302 295 289 289 297 308 309 313 319 320 310 303 290 268 271 279 281 284 264 261 269 273 264 267 270 269 269 266 267
43 3 329 17 338 303 282 286 353 41 15 6 342 326 327 340 336 330 335 337 326 332 332 328 324 302 302 308 314 315 317 317 316 312 313 317 318 314 278 272 282 288 291 269 259 255 265 266 256 260 266 266 266 266
351 356 325 320 303 253 176 11 345 334 326 311 302 293 289 293 301 298 306 320 327 327 321 312 307 324 335 335 333 338 344 335 335 346 337 321 313 313 312 316 309 298 290 268 238 239 255 265 257 260 268 274 283 287
333 336 318 316 308 307 323 324 322 317 317 317 310 288 283 293 283 42 30 24 18 31 13 2 349 2 335 332 334 331 327 317 326 325 325 318 306 310 300 309 318 312 281 215 211 245 254 258 261 272 280 277 270 260
331 316 303 307 308 307 305 315 315 306 300 293 286 277 271 261 253 74 32 33 20 16 1 347 346 352 352 335 320 320 323 335 328 322 325 328 320 304 300 304 306 304 312 307 257 270 279 266 258 271 269 276 277 278
317 322 311 300 298 327 326 314 302 299 288 286 304 63 43 57 65 64 26 26 19 10 1 358 359 4 333 331 338 344 346 337 333 331 328 325 314 306 316 321 309 268 250 242 241 263 301 306 291 267 277 279 274 278
Wind_Speed_850mb
22 24 22 35 42 52 59 52 53 50 46 42 38 33 35 37 33 36 25 25 26 15 31 23 18 21 23 22 13 16 9 11 15 11 8 13 18 23 30 42 42 35 17 33 37 27 40 48 39 24 32 20 14 22
25 24 25 31 39 42 48 59 63 58 57 55 48 44 39 34 36 34 28 22 21 23 20 21 25 31 32 36 35 32 25 30 13 8 10 8 12 9 24 25 37 36 34 12 19 24 19 22 41 47 44 42 28 28
35 37 42 45 49 52 51 56 63 64 59 62 62 56 48 40 37 38 30 24 21 21 32 42 41 39 42 43 32 34 42 51 43 39 14 8 13 3 10 9 26 37 34 31 19 25 22 41 42 32 18 14 22 27
44 48 46 41 42 45 55 58 63 74 61 56 64 57 56 52 47 37 37 31 23 9 11 17 15 25 27 34 42 55 66 54 52 47 28 11 17 14 15 12 17 13 19 8 15 18 28 35 21 55 23 29 27 26
47 42 42 47 38 35 39 48 64 66 75 56 53 60 51 46 42 40 35 34 31 18 9 22 41 51 48 48 49 53 57 58 51 34 20 23 31 26 21 20 23 25 20 16 9 29 24 39 26 27 27 25 27 32
47 44 51 50 25 20 26 35 57 61 69 63 47 52 55 50 43 37 30 51 48 35 7 7 18 53 55 55 44 48 70 61 59 48 28 51 71 34 14 24 47 36 56 66 34 38 42 58 54 14 20 20 32 38
43 48 50 40 22 12 14 31 41 53 63 65 51 46 45 49 49 44 9 8 35 37 2 9 10 15 4 12 29 45 45 44 52 36 25 45 41 40 29 34 64 52 64 60 59 57 43 51 42 25 24 24 26 18
37 43 52 42 27 19 15 26 38 50 47 61 52 44 39 40 43 49 20 18 25 16 9 7 10 25 18 12 10 19 32 49 30 36 31 24 30 30 16 44 69 56 32 66 45 37 37 31 31 33 36 33 29 27
30 36 43 52 33 22 26 29 36 50 46 56 49 46 30 21 14 17 35 19 15 16 8 12 12 15 9 11 17 19 19 9 18 13 17 18 13 19 33 46 45 49 45 47 38 42 46 42 44 41 40 31 37 38
24 26 31 39 46 42 24 29 34 42 46 57 43 17 8 19 13 21 12 9 13 14 17 10 27 23 33 41 9 6 12 6 6 11 14 15 26 53 60 55 57 56 53 28 32 37 37 40 39 39 37 34 33 34
15 18 18 25 33 45 56 41 45 56 63 28 10 7 22 23 11 9 11 13 17 9 18 23 39 21 35 14 10 10 7 4 7 6 11 6 11 29 60 57 51 46 47 24 26 35 32 32 32 28 31 35 35 30
7 8 10 13 17 26 34 29 23 21 8 10 17 23 18 9 7 8 8 9 11 9 17 18 23 14 9 4 6 10 6 5 9 9 6 3 5 5 3 23 35 31 31 35 29 34 33 27 22 26 27 27 29 32
5 3 4 7 10 11 16 16 11 16 19 10 6 8 8 12 13 12 14 9 9 12 11 12 7 5 5 11 8 6 7 3 10 5 5 3 8 14 8 5 5 7 10 15 19 24 25 27 28 30 34 35 36 38
14 10 11 10 9 8 12 13 14 11 3 2 8 10 12 11 12 12 13 13 14 16 22 14 12 5 5 6 5 7 3 6 6 4 4 11 21 19 12 10 6 3 8 13 20 25 27 29 30 33 38 45 47 46
21 25 24 23 20 16 13 9 7 12 7 8 10 9 15 21 14 4 9 17 32 29 23 18 15 20 8 8 7 8 5 8 8 4 4 12 14 15 11 5 9 11 10 12 14 15 16 17 18 21 21 20 24 29
19 23 28 28 27 27 26 22 19 15 6 8 13 14 22 13 11 12 11 25 25 26 23 13 7 6 11 6 10 12 8 10 2 6 15 21 11 16 19 17 11 5 6 7 7 6 7 10 10 10 10 10 13 15
18 14 21 22 31 35 32 33 16 13 12 10 11 25 31 31 21 10 18 17 6 4 6 5 9 15 5 8 10 10 15 8 15 21 22 24 17 22 28 13 6 3 1 2 4 7 9 8 6 6 2 6 12 16
17 16 21 24 28 29 31 41 16 14 15 25 14 22 21 27 23 23 21 18 16 10 7 6 8 8 7 7 7 4 13 18 20 23 27 34 28 22 11 3 4 6 11 14 10 11 9 2 2 1 1 5 9 15
18 21 15 13 15 9 9 16 18 11 28 20 27 29 28 26 30 35 29 22 24 17 7 6 9 9 11 8 6 7 4 5 13 25 25 23 14 9 9 9 12 13 18 20 18 15 13 15 13 13 15 17 14 16
27 25 29 32 25 8 9 9 14 10 9 14 22 26 24 21 23 22 16 15 16 9 9 8 8 11 5 9 9 11 13 13 13 19 20 16 13 12 13 14 15 17 19 20 20 21 20 19 19 21 22 23 23 25
17 21 15 16 22 20 11 11 14 11 10 11 17 25 21 25 28 23 16 19 10 9 9 11 9 6 12 11 13 10 10 10 13 16 19 17 20 13 12 13 14 19 23 25 29 30 25 23 22 23 25 26 23 26
14 13 10 23 17 19 16 18 13 9 9 14 20 24 21 12 16 16 12 12 10 27 16 5 5 8 8 12 12 13 13 15 16 18 20 19 16 16 13 15 13 20 25 26 32 32 32 25 18 25 28 30 23 29
13 17 16 20 17 13 10 13 10 10 8 6 11 6 5 4 2 14 7 17 13 8 9 8 6 6 7 8 10 11 14 19 19 19 22 21 23 22 24 22 21 25 29 29 26 28 29 26 27 24 26 25 22 25
19 9 6 7 13 4 5 6 10 9 5 7 6 3 6 3 2 6 9 6 13 16 14 11 6 6 8 13 17 22 22 22 23 23 21 21 26 27 26 22 20 27 27 28 28 26 23 23 22 23 22 25 24 27
9 10 6 9 10 8 8 6 4 4 5 7 3 5 4 2 4 5 7 4 15 19 25 18 16 15 19 26 29 31 29 28 33 36 32 27 30 28 30 31 33 26 26 28 26 25 24 26 27 27 27 26 28 29
8 6 6 6 3 6 4 4 8 10 6 3 4 5 1 3 4 7 2 14 22 20 24 22 19 24 30 29 33 34 33 32 34 39 37 32 30 24 26 28 30 30 27 27 30 19 19 23 29 26 27 30 32 32
4 2 3 5 9 12 7 7 5 3 2 5 5 3 3 7 9 4 12 21 12 15 20 27 28 28 31 33 30 27 30 31 30 36 44 45 41 35 28 34 38 39 38 31 21 22 22 22 22 24 27 27 30 32
10 19 13 18 6 5 7 6 4 7 5 6 4 7 4 4 6 9 15 25 27 29 33 34 28 28 24 27 37 38 32 34 39 39 38 35 31 30 32 37 36 30 33 38 39 34 26 22 21 20 20 21 26 28
9 26 19 3 6 6 5 4 7 11 13 13 9 6 6 19 37 42 32 26 33 48 56 46 30 30 31 20 19 20 23 27 31 37 35 36 36 34 22 23 25 29 30 29 30 30 22 20 21 20 20 20 20 21
12 26 13 9 7 6 0 16 24 33 31 24 27 39 45 42 39 34 30 35 43 38 30 25 18 13 14 18 21 22 22 20 24 30 34 32 36 42 33 27 29 27 25 20 26 20 17 12 13 16 18 18 19 19
32 39 34 34 24 38 39 40 41 34 29 34 35 37 40 35 13 20 23 20 19 13 13 18 13 14 18 22 22 26 28 28 32 34 35 31 26 26 23 24 22 15 7 7 9 8 8 8 7 9 11 13 15 15
30 33 29 26 26 39 35 28 33 36 41 43 40 36 35 29 16 12 32 25 23 26 25 22 17 19 24 24 17 24 26 25 29 36 37 31 25 20 16 14 15 11 7 3 5 9 9 4 4 8 10 8 9 12
32 39 47 34 10 14 34 35 36 33 30 29 12 18 22 12 12 11 20 30 33 34 26 22 19 25 12 16 22 28 25 22 25 29 27 22 13 9 11 13 14 13 8 8 6 6 8 9 6 9 12 11 10 10
Wind_Direction_850mb
314 309 286 270 263 254 248 244 235 230 228 220 217 216 218 218 214 208 225 225 215 244 260 279 270 272 266 265 266 274 303 249 165 218 237 242 246 253 257 252 260 260 236 227 227 237 243 238 253 186 214 258 257 199
324 310 296 285 276 266 254 244 231 227 220 217 218 217 215 212 215 215 229 237 227 244 258 280 272 261 263 267 279 277 264 252 214 241 234 266 260 269 268 264 255 249 246 237 235 236 254 254 238 253 217 203 212 214
329 321 308 295 281 266 256 243 232 220 218 214 214 215 216 213 214 215 218 237 229 251 272 259 260 259 254 252 250 262 253 254 269 264 251 254 254 273 297 310 281 248 244 243 245 246 283 292 283 248 184 212 222 205
333 327 320 305 290 270 251 240 225 220 209 214 213 214 217 219 219 222 221 231 228 250 274 282 272 261 261 249 244 242 251 264 275 277 267 251 253 226 263 276 307 310 335 306 244 264 298 249 246 250 211 214 228 233
342 341 337 331 295 275 250 229 214 214 210 209 209 207 205 207 209 217 220 232 239 226 298 293 294 284 270 257 251 245 240 242 245 251 247 249 247 255 264 266 265 256 257 269 278 310 323 275 192 199 223 242 248 243
355 339 337 339 332 296 226 209 200 204 205 201 199 198 203 203 203 214 231 232 223 224 269 284 290 287 274 263 253 246 247 245 240 240 242 249 246 255 263 263 260 277 254 255 264 271 286 288 298 295 269 249 251 234
358 4 2 7 18 37 172 179 188 197 205 186 185 186 194 202 209 212 228 239 204 203 248 278 271 274 276 294 244 250 252 253 259 252 230 237 240 224 239 247 260 260 280 283 252 254 255 275 256 259 273 260 257 249
5 12 15 26 39 56 113 167 178 178 182 175 180 187 198 203 209 213 208 152 160 172 224 261 260 270 280 240 250 261 249 249 232 234 230 223 228 229 242 238 254 258 264 266 267 270 283 281 277 266 258 253 249 242
13 19 27 34 48 74 84 128 159 178 183 172 182 198 192 177 175 179 171 197 208 215 235 229 261 292 205 235 273 283 233 240 208 220 218 204 211 221 229 240 247 254 252 255 253 260 267 268 270 272 272 256 243 233
16 26 36 42 48 58 100 126 132 155 156 167 159 120 120 167 127 122 145 202 210 211 222 255 257 260 281 286 278 268 242 245 236 210 188 227 242 239 240 242 234 248 258 271 284 281 260 265 274 268 253 249 244 245
14 29 41 56 65 72 77 94 140 141 138 119 121 105 129 147 147 194 212 207 197 220 216 245 236 252 267 264 284 219 301 291 264 170 188 233 252 239 238 241 242 248 260 271 284 299 295 269 256 245 254 253 259 260
339 21 49 75 90 107 109 94 65 63 92 112 119 110 131 176 184 228 220 217 225 235 232 211 242 255 277 246 259 255 258 295 352 333 273 261 258 359 343 230 243 257 253 262 276 293 290 294 271 262 262 258 251 260
304 280 133 130 100 155 169 155 98 116 106 114 115 138 176 183 220 218 203 225 228 226 240 278 289 259 249 236 250 266 278 306 302 275 274 301 96 104 131 177 246 244 262 271 273 272 266 261 260 258 256 260 255 249
235 226 201 182 184 145 171 210 237 205 151 186 166 205 217 189 229 205 236 261 283 310 291 283 285 253 226 251 258 261 291 283 275 251 230 61 34 28 32 35 23 291 303 291 281 279 281 280 277 271 264 258 255 251
254 236 223 217 207 201 202 214 247 188 206 230 217 234 221 237 256 250 254 278 272 278 284 288 265 236 235 235 233 242 235 250 239 286 49 66 48 48 30 349 289 292 295 302 300 296 294 290 285 278 272 260 247 239
265 256 245 232 233 239 246 242 248 239 226 229 238 253 264 269 241 188 248 264 274 280 221 232 255 249 221 226 210 212 240 226 261 29 2 338 325 335 339 315 291 271 319 332 337 360 332 307 293 291 267 236 227 216
260 255 255 247 231 230 227 226 247 220 214 227 240 246 269 280 280 254 245 255 237 203 225 186 220 221 240 235 220 217 242 325 21 359 349 346 331 318 319 287 220 217 273 46 0 342 355 6 34 42 7 191 194 189
247 263 253 265 263 251 223 209 210 218 234 232 247 249 243 248 264 266 258 239 199 210 203 233 311 216 227 235 238 343 52 18 360 323 313 310 290 304 300 279 275 316 320 330 296 312 305 299 212 246 119 168 192 196
240 235 243 262 283 257 256 216 196 227 221 236 245 254 262 266 265 266 258 253 224 225 227 215 245 251 253 308 49 73 0 339 326 329 318 321 306 311 316 301 295 296 287 280 281 284 269 253 245 262 250 236 235 235
255 260 251 249 247 231 256 243 199 237 245 233 233 245 242 248 263 264 241 242 235 231 224 228 246 333 345 38 33 347 348 330 333 323 330 338 301 306 300 292 288 291 287 270 261 259 256 263 266 272 269 261 261 238
269 269 240 214 208 220 266 269 217 230 246 238 240 237 244 250 252 235 226 213 218 229 240 262 81 42 7 356 359 351 351 350 332 316 315 318 330 317 293 289 285 284 277 270 257 257 257 247 265 268 257 256 261 247
234 223 203 183 215 208 243 240 250 284 260 248 263 256 258 250 249 246 164 189 244 238 264 293 33 26 42 31 17 20 358 343 325 312 306 300 298 311 325 319 297 289 289 285 280 269 256 255 256 270 270 254 248 246
240 212 228 202 208 217 262 213 235 228 238 254 257 244 246 225 179 161 216 220 209 180 151 130 107 84 64 31 10 7 355 353 349 335 325 314 309 303 303 295 295 304 296 287 278 283 264 260 266 269 262 257 249 238
196 209 239 239 215 237 196 241 236 247 249 245 238 247 319 330 249 236 255 281 118 138 147 122 66 16 348 347 342 336 335 324 317 317 317 310 306 302 299 297 292 298 297 297 286 284 261 254 268 266 263 243 243 236
188 201 221 227 224 211 221 221 237 279 239 228 275 299 295 268 235 260 282 87 108 108 81 65 31 7 349 334 324 322 319 320 320 312 303 301 297 287 294 292 290 292 299 289 283 281 270 266 267 261 260 251 245 244
242 157 223 311 263 224 234 234 199 216 247 221 267 271 335 288 278 246 70 90 124 104 43 20 351 331 317 310 309 311 313 315 310 308 303 300 297 285 286 293 293 293 295 293 277 267 271 271 268 265 265 253 246 244
274 241 249 259 300 303 291 259 279 267 235 229 238 253 240 224 228 87 81 58 47 15 351 339 325 308 303 304 304 302 297 303 299 289 284 283 276 271 280 282 284 287 282 280 265 280 280 273 269 273 268 264 261 258
4 17 339 336 290 262 292 296 245 225 234 12 265 210 231 267 38 30 5 353 350 337 332 330 315 302 295 289 289 297 308 309 313 319 320 310 303 290 268 271 279 281 284 264 261 269 273 264 267 270 269 269 266 267
43 3 329 17 338 303 282 286 353 41 15 6 342 326 327 340 336 330 335 337 326 332 332 328 324 302 302 308 314 315 317 317 316 312 313 317 318 314 278 272 282 288 291 269 259 255 265 266 256 260 266 266 266 266
351 356 325 320 303 253 176 11 345 334 326 311 302 293 289 293 301 298 306 320 327 327 321 312 307 324 335 335 333 338 344 335 335 346 337 321 313 313 312 316 309 298 290 268 238 239 255 265 257 260 268 274 283 287
333 336 318 316 308 307 323 324 322 317 317 317 310 288 283 293 283 42 30 24 18 31 13 2 349 2 335 332 334 331 327 317 326 325 325 318 306 310 300 309 318 312 281 215 211 245 254 258 261 272 280 277 270 260
331 316 303 307 308 307 305 315 315 306 300 293 286 277 271 261 253 74 32 33 20 16 1 347 346 352 352 335 320 320 323 335 328 322 325 328 320 304 300 304 306 304 312 307 257 270 279 266 258 271 269 276 277 278
317 322 311 300 298 327 326 314 302 299 288 286 304 63 43 57 65 64 26 26 19 10 1 358 359 4 333 331 338 344 346 337 333 331 328 325 314 306 316 321 309 268 250 242 241 263 301 306 291 267 277 279 274 278